Printer-friendly version

IAU Minor Planet Center

Minor Planet Center

MPEC 2006-T47 : COMET P/2006 T1 (LEVY)

The following Minor Planet Electronic Circular may be linked-to from your own Web pages, but must not otherwise be redistributed electronically.


Read MPEC 2006-T46 Read MPEC 2006-T48


M.P.E.C. 2006-T47                                Issued 2006 Oct. 7, 20:15 UT

     The Minor Planet Electronic Circulars contain information on unusual
         minor planets and routine data on comets.  They are published
   on behalf of Commission 20 of the International Astronomical Union by the
          Minor Planet Center, Smithsonian Astrophysical Observatory,
                          Cambridge, MA 02138, U.S.A.

             Prepared using the Tamkin Foundation Computer Network

                              MPC@CFA.HARVARD.EDU
          URL http://cfa-www.harvard.edu/iau/mpc.html  ISSN 1523-6714

                            COMET P/2006 T1 (LEVY)

Observations:
    PK06T010  C2006 10 06.19418 09 51 57.81 +13 28 18.1          13.3 T ET047442
    PK06T010  C2006 10 06.19606 09 51 58.27 +13 28 13.6          13.3 T ET047442
    PK06T010  C2006 10 06.19759 09 51 58.53 +13 28 11.3          13.6 N ET047J63
    PK06T010  C2006 10 06.20091 09 51 59.25 +13 28 02.9          13.6 N ET047J63
    PK06T010  C2006 10 06.20590 09 52 00.31 +13 27 50.7          13.6 N ET047J63
    PK06T010   2006 10 06.81059 09 54 19.75 +13 04 07.6          11.0 T ET047372
    PK06T010   2006 10 06.81434 09 54 20.58 +13 03 57.7                 ET047372
    PK06T010   2006 10 06.81910 09 54 21.65 +13 03 47.5          10.9 T ET047372
    PK06T010   2006 10 06.82250 09 54 22.45 +13 03 38.4                 ET047372
    PK06T010  C2006 10 07.16040 09 55 39.87 +12 50 19.9                 ET047J95
    PK06T010  C2006 10 07.16149 09 55 40.11 +12 50 17.1                 ET047J95
    PK06T010  C2006 10 07.16365 09 55 40.61 +12 50 12.0                 ET047J95
    PK06T010  C2006 10 07.17881 09 55 44.07 +12 49 36.5                 ET047J95
    PK06T010  C2006 10 07.20660 09 55 50.41 +12 48 30.8          14.8 N ET047J95
    PK06T010  C2006 10 07.76513 09 57 58.05 +12 26 34.0                 ET047349
    PK06T010  C2006 10 07.76710 09 57 58.50 +12 26 29.2                 ET047349
    PK06T010  C2006 10 07.76907 09 57 58.94 +12 26 24.4          10.7 T ET047349

Observer details:
349 Ageo.  Observer K. Kadota.  0.25-m f/5.0 reflector + CCD.
372 Geisei.  Observer T. Seki.  0.60-m f/3.5 reflector.
442 Gualba Observatory.  Observer A. Sanchez C.  0.31-m f/3.3
    Schmidt-Cassegrain + CCD.
J63 San Gabriel.  Observer F. Lopez.  0.13-m f/5.0 Schmidt-Cassegrain + CCD.
J95 Great Shefford.  Observer P. Birtwhistle.  0.40-m f/6.0 Schmidt-Cassegrain
    + CCD.

Orbital elements:
    P/2006 T1 (Levy)
T 2006 Oct. 7.587 TT                                    MPC
q   0.99161              (2000.0)            P               Q
n   0.183353       Peri.  179.657       -0.167005       -0.935848
a   3.06862        Node   279.940       +0.903844       -0.019567
e   0.67686        Incl.   18.364       +0.393922       -0.351861
P   5.38
From 92 observations 2006 Oct. 2-7.

Ephemeris:
    P/2006 T1 (Levy)
Date    TT    R. A. (2000) Decl.     Delta      r     Elong.  Phase   m1    m2
2006 10 02    09 35.48   +16 12.3    1.338    0.995    47.7    48.1  11.1
2006 10 12    10 13.74   +09 39.9    1.366    0.994    46.6    46.8  11.1
2006 10 22    10 48.81   +03 11.7    1.404    1.012    46.1    45.1  11.3
2006 11 01    11 21.25   -02 57.3    1.449    1.050    46.4    43.2  11.5
2006 11 11    11 51.49   -08 38.2    1.496    1.103    47.5    41.4  11.8
2006 11 21    12 19.82   -13 47.0    1.542    1.168    49.2    39.9  12.1
2006 12 01    12 46.37   -18 22.8    1.583    1.242    51.7    38.5  12.4

Brian G. Marsden             (C) Copyright 2006 MPC           M.P.E.C. 2006-T47

Read MPEC 2006-T46 Read MPEC 2006-T48


Our Web policy. Index to the CBAT/MPC/ICQ pages.


Valid HTML 4.01!